Location: ????????
(48.4751°N, 37.6926°E)
Time: 02:50:08
(UTC+00:00)

MOS 1 Rocket - Pass Details

Date: 20 January 2021
Orbit: 614 x 830 km, 97.4° (Epoch: 24 February)

Event Time Altitude Azimuth Distance (km) Brightness Sun altitude
Exits shadow 15:22:19 - 20° (NNE) 2,620 5.9 -11.9°
Reaches altitude 10° 15:23:52 10° 26° (NNE) 2,008 5.3 -12.2°
Maximum altitude 15:27:58 40° 97° (E) 909 3.5 -12.8°
Drops below altitude 10° 15:31:59 10° 168° (SSE) 1,970 5.7 -13.5°
Sets 15:34:15 0° 176° (S) 2,876 6.6 -13.8°
